Content
SEND FEEDBACK

Daily
Averages
Monthly
Summary
Italy

FLORENCE - AIRPORT, ITALY


Home > Europe > Italy
Elevation: 125 feet     Latitude: 43 48N     Longitude: 011 12E

WEATHER
 
SELECT A DAY
Number of Records: 247,212;   Date Range: 7/1/96 - 10/1/14
 
SHARE

PRINT THIS DATA

[ ← Previous Day ]
WEATHER ALMANAC - APRIL 7, 2013
[ Next Day → ]
[ °C ]   °F
Weather ElementAverageHighLow
Temperature54.9 °F59 °F (1:20 pm)50 °F (4:20 am)
Dewpoint40.8 °F46.4 °F (1:20 pm)35.6 °F (8:20 pm)
Humidity59.6 %76 % (6:20 am)47 % (8:20 pm)
Barometer29.80 in29.86 in (10:20 pm)29.77 in (4:20 am)
Wind Speed7.1 mph12.7 mph (1:50 pm)
Wind Gust21.9 mph (11:50 am)
Weather ElementAverage
Visibility6.2 mi
Wind DirectionENE (80.2 °)

Weather ElementTotal
Precipitation---
Heating Degree Days10.5 (Base 65)
Growing Degree Days4.5 (Base 50)
Averaged from 47 records on April 7, 2013
WEATHER CONDITIONS BREAKOUT
WIND DIRECTION BREAKOUT
WEATHER BY HOUR - APRIL 7, 2013
[ °C ]   °F
Local TimeTemperatureDewpointHumidityBarometerVisibilityWind DirectionWind SpeedGust SpeedPrecipitationEventsConditions
12:50 AM55.4 °F42.8 °F63 %29.83 in6.2 miVariable2.3 mphPartly Cloudy
1:20 AM55.4 °F39.2 °F54 %29.80 inVariable3.5 mphClear
1:50 AM55.4 °F41.0 °F58 %29.80 inVariable4.6 mphClear
2:20 AM53.6 °F42.8 °F67 %29.80 inSSW (210°)8.1 mphClear
2:50 AM53.6 °F42.8 °F67 %29.80 inVariable3.5 mphClear
3:20 AM53.6 °F42.8 °F67 %29.80 inSSW (210°)5.8 mphClear
3:50 AM53.6 °F41.0 °F62 %29.80 inVariable3.5 mphClear
4:20 AM50.0 °F41.0 °F71 %29.77 inVariable2.3 mphClear
4:50 AM51.8 °F41.0 °F67 %29.77 inVariable2.3 mphClear
5:20 AM50.0 °F41.0 °F71 %29.77 inVariable1.2 mphClear
5:50 AM51.8 °F42.8 °F71 %29.77 inSouth (180°)4.6 mphClear
6:20 AM50.0 °F42.8 °F76 %29.77 inSW (220°)4.6 mphClear
6:50 AM50.0 °F42.8 °F76 %29.77 inSouth (190°)4.6 mphClear
7:20 AM50.0 °F42.8 °F76 %29.77 inSouth (180°)5.8 mphClear
7:50 AM50.0 °F42.8 °F76 %29.77 in6.2 miSSW (210°)4.6 mphPartly Cloudy
8:20 AM53.6 °F42.8 °F67 %29.80 in6.2 miSouth (190°)4.6 mphPartly Cloudy
8:50 AM55.4 °F42.8 °F63 %29.80 in6.2 miSouth (190°)3.5 mphPartly Cloudy
9:20 AM57.2 °F42.8 °F59 %29.80 in6.2 miVariable4.6 mphScattered Clouds
9:50 AM57.2 °F42.8 °F59 %29.80 in6.2 miVariable4.6 mphScattered Clouds
10:20 AM57.2 °F42.8 °F59 %29.80 in6.2 miNNW (340°)9.2 mphScattered Clouds
10:50 AM57.2 °F42.8 °F59 %29.83 in6.2 miVariable6.9 mph19.6 mphScattered Clouds
11:20 AM57.2 °F42.8 °F59 %29.83 in6.2 miNE (50°)11.5 mphScattered Clouds
11:50 AM57.2 °F42.8 °F59 %29.83 in6.2 miNNE (20°)8.1 mph21.9 mphScattered Clouds
12:20 PM57.2 °F41.0 °F55 %29.80 in6.2 miVariable8.1 mphScattered Clouds
12:50 PM57.2 °F41.0 °F55 %29.80 in6.2 miNorth (10°)9.2 mph21.9 mphScattered Clouds
1:20 PM59.0 °F46.4 °F63 %29.80 in6.2 miNE (40°)11.5 mphScattered Clouds
1:50 PM59.0 °F42.8 °F55 %29.80 in6.2 miNE (40°)12.7 mphScattered Clouds
2:20 PM59.0 °F41.0 °F51 %29.80 in6.2 miNNE (30°)11.5 mphPartly Cloudy
2:50 PM59.0 °F42.8 °F55 %29.80 in6.2 miNorth (10°)10.4 mphPartly Cloudy
3:20 PM59.0 °F42.8 °F55 %29.77 in6.2 miNorth (350°)10.4 mph21.9 mphPartly Cloudy
3:50 PM59.0 °F42.8 °F55 %29.77 in6.2 miNorth (360°)11.5 mphPartly Cloudy
4:20 PM59.0 °F41.0 °F51 %29.77 in6.2 miNorth (350°)9.2 mphPartly Cloudy
4:50 PM59.0 °F42.8 °F55 %29.80 in6.2 miNNE (30°)9.2 mphScattered Clouds
5:20 PM59.0 °F41.0 °F51 %29.77 in6.2 miNNE (20°)10.4 mphPartly Cloudy
5:50 PM57.2 °F41.0 °F55 %29.77 in6.2 miNNE (30°)9.2 mph21.9 mphPartly Cloudy
6:20 PM57.2 °F41.0 °F55 %29.80 in6.2 miNNE (30°)6.9 mphPartly Cloudy
6:50 PM57.2 °F37.4 °F48 %29.80 inNorth (10°)9.2 mphClear
7:20 PM57.2 °F37.4 °F48 %29.80 inNorth (10°)9.2 mphClear
7:50 PM55.4 °F37.4 °F51 %29.80 inNorth (10°)9.2 mph20.7 mphClear
8:20 PM55.4 °F35.6 °F47 %29.83 inNNE (20°)11.5 mphClear
8:50 PM53.6 °F35.6 °F51 %29.83 inENE (60°)10.4 mphClear
9:20 PM51.8 °F35.6 °F54 %29.83 inNE (40°)9.2 mphClear
9:50 PM50.0 °F37.4 °F62 %29.83 inENE (60°)11.5 mphClear
10:20 PM50.0 °F35.6 °F58 %29.86 in6.2 miNE (40°)6.9 mphPartly Cloudy
10:50 PM51.8 °F35.6 °F54 %29.86 in6.2 miNNE (30°)5.8 mphPartly Cloudy
11:20 PM51.8 °F35.6 °F54 %29.86 in6.2 miVariable2.3 mphPartly Cloudy
11:50 PM50.0 °F35.6 °F58 %29.86 in6.2 miVariable5.8 mphPartly Cloudy
Hourly data recorded from LIRQ, located miles away from Florence - Airport, Italy







STORIES FROM OUR PARTNERS